Waarnemingen

Advertentie
Mijn weer
Auch, Frankrijk (7622): temperatuur & dauwpunt: 19.02.2018 20:00:00 - 25.02.2018 20:00:00 (CET)Auch, Frankrijk (7622): temperatuur 5cm: 19.02.2018 20:00:00 - 25.02.2018 20:00:00 (CET)Auch, Frankrijk (7622): temperatuur -20cm & temperatuur -100cm: 19.02.2018 20:00:00 - 25.02.2018 20:00:00 (CET)Auch, Frankrijk (7622): windsnelheid & windstoten: 19.02.2018 20:00:00 - 25.02.2018 20:00:00 (CET)Auch, Frankrijk (7622): windrichting: 19.02.2018 20:00:00 - 25.02.2018 20:00:00 (CET)Auch, Frankrijk (7622): luchtdruk: 19.02.2018 20:00:00 - 25.02.2018 20:00:00 (CET)Auch, Frankrijk (7622): zicht: 19.02.2018 20:00:00 - 25.02.2018 20:00:00 (CET)Auch, Frankrijk (7622): Zonneschijnduur: 19.02.2018 20:00:00 - 25.02.2018 20:00:00 (CET)Auch, Frankrijk (7622): neerslag: 19.02.2018 20:00:00 - 25.02.2018 20:00:00 (CET)
Datum & Tijd tt [°C] td [°C] tt 5cm [°C] tt -20cm [°C] tt -100cm [°C] ff [km/u] ff [kn] fx [km/u] fx [kn] dd ppp [hPa] vv [km] sd [min] rr [mm]
25.02.2018 20:00:00 3,6 0,5 -1,4 7,4 9,7 2 1 10 5 ZZW 1014,5 6 0 0,0
25.02.2018 19:00:00 5,7 0,5 4,2 7,4 9,8 9 5 19 11 N 1013,9 8 6 0,0
25.02.2018 18:00:00 7,6 1,6 7,3 7,2 9,8 12 6 26 14 W 1013,1 11 38 0,0
25.02.2018 17:00:00 8,0 0,9 8,9 7,0 9,7 17 9 31 17 W 1012,4 10 56 0,0
25.02.2018 16:00:00 8,2 1,1 11,1 6,9 9,7 18 10 41 22 WNW 1012,3 10 60 0,0
25.02.2018 15:00:00 8,0 1,8 10,6 6,7 9,7 19 10 36 19 WNW 1012,2 8 56 0,0
25.02.2018 14:00:00 7,8 2,5 9,2 6,6 9,7 17 9 30 16 WNW 1012,3 9 16 0,0
25.02.2018 13:00:00 7,9 1,7 10,2 6,5 9,8 18 10 39 21 WNW 1012,3 9 55 0,0
25.02.2018 12:00:00 7,4 2,5 9,6 6,5 9,8 15 8 32 17 W 1012,5 7 57 0,0
25.02.2018 11:00:00 6,7 1,0 8,3 6,6 9,8 14 7 26 14 W 1012,9 8 60 0,0
25.02.2018 10:00:00 5,2 1,1 4,2 6,6 9,8 11 6 18 10 WZW 1012,9 9 60 0,0
25.02.2018 09:00:00 1,3 1,3 -2,4 6,7 9,8 10 6 14 7 Z 1013,4 6 54 0,0
25.02.2018 08:00:00 -0,5 -0,5 -2,4 6,7 9,8 6 3 9 5 ZZW 1013,1 3,8 0 0,0
25.02.2018 07:00:00 0,2 0,2 -0,7 6,8 9,8 0 0 8 4 N 1012,7 4,4 0 0,0
25.02.2018 06:00:00 0,3 0,3 -0,4 6,9 9,8 5 3 8 4 N 1012,5 5 0 0,0
25.02.2018 05:00:00 0,3 0,3 -1,2 7,0 9,8 0 0 7 4 N 1012,4 6 0 0,0
25.02.2018 04:00:00 0,1 0,1 -1,6 7,1 9,8 7 4 10 5 Z 1012,1 6 0 0,0
25.02.2018 03:00:00 0,2 0,2 -0,8 7,2 9,8 9 5 16 9 Z 1012,5 6 0 0,0
25.02.2018 02:00:00 0,3 0,3 -1,8 7,2 9,8 8 5 12 6 ZZW 1012,6 6 0 0,0
25.02.2018 01:00:00 -0,7 -0,7 -4,5 7,4 9,8 8 4 10 6 Z 1012,9 5 0 0,0
25.02.2018 00:00:00 -1,3 -2,1 -3,8 7,4 9,8 4 2 8 4 ZZW 1012,8 4,4 0 0,0
24.02.2018 23:00:00 0,4 -0,6 -3,0 7,5 9,8 0 0 7 4 N 1012,8 6 0 0,0
24.02.2018 22:00:00 1,4 -0,2 -2,2 7,5 9,8 0 0 3 1 N 1012,5 8 0 0,0
24.02.2018 21:00:00 2,7 0,4 -1,0 7,5 9,9 2 1 5 3 ZZW 1012,0 9 0 0,0
24.02.2018 20:00:00 4,5 0,8 1,5 7,4 9,8 0 0 3 2 N 1011,6 13 0 0,0
24.02.2018 19:00:00 5,8 -0,3 1,9 7,2 9,8 0 0 6 4 N 1011,2 13 12 0,0
24.02.2018 18:00:00 7,3 -0,7 6,4 7,1 9,9 4 2 10 5 NNW 1010,8 15 32 0,0
24.02.2018 17:00:00 7,7 -1,0 9,1 6,9 9,9 6 3 14 7 N 1010,2 15 0 0,0
24.02.2018 16:00:00 7,9 -0,6 10,0 6,8 9,9 4 2 13 7 NW 1009,9 16 6 0,0
24.02.2018 15:00:00 7,9 -1,1 12,1 6,6 9,9 6 3 14 7 NO 1009,9 16 58 0,0
24.02.2018 14:00:00 7,1 -1,8 11,5 6,5 9,9 9 5 17 9 N 1010,2 15 60 0,0
24.02.2018 13:00:00 6,5 -1,9 10,3 6,4 9,9 7 4 14 8 NO 1010,6 14 57 0,0
24.02.2018 12:00:00 5,8 -2,3 10,7 6,5 9,9 7 4 14 8 NO 1010,8 17 60 0,0
24.02.2018 11:00:00 5,1 0,1 6,9 6,5 9,9 0 0 4 2 N 1010,8 10 60 0,0
24.02.2018 10:00:00 0,5 0,5 -0,4 6,7 9,9 3 1 5 3 ZZO 1011,2 7 60 0,0
24.02.2018 09:00:00 -2,8 -2,8 -7,5 6,8 9,9 0 0 2 1 N 1011,5 4,2 42 0,0
24.02.2018 08:00:00 -4,4 -4,4 -7,6 6,9 9,9 0 0 3 1 N 1011,2 2,6 0 0,0
24.02.2018 07:00:00 -4,2 -4,2 -7,7 7,1 9,9 3 1 3 2 Z 1010,5 3,2 0 0,0
24.02.2018 06:00:00 -4,0 -4,0 -7,1 7,2 9,9 0 0 4 2 N 1010,5 3,7 0 0,0
24.02.2018 05:00:00 -3,6 -3,6 -6,9 7,4 9,9 0 0 4 2 N 1010,1 2,7 0 0,0
24.02.2018 04:00:00 -3,2 -3,2 -5,7 7,5 9,9 0 0 0 0 N 1010,1 3,2 0 0,0
24.02.2018 03:00:00 -2,9 -3,0 -5,9 7,6 9,9 0 0 3 1 N 1010,4 4,4 0 0,0
24.02.2018 02:00:00 -2,6 -3,0 -5,8 7,7 9,9 0 0 3 2 N 1010,3 3,6 0 0,0
24.02.2018 01:00:00 -2,6 -3,4 -5,4 7,8 9,9 2 1 3 2 ZZW 1010,3 4,3 0 0,0
24.02.2018 00:00:00 -1,9 -2,9 -5,1 7,9 9,9 0 0 3 2 N 1010,4 4,6 0 0,0
23.02.2018 23:00:00 -1,5 -2,9 -4,7 8,0 9,9 2 1 4 2 ZZW 1010,4 6 0 0,0
23.02.2018 22:00:00 -0,1 -2,5 -3,5 8,0 9,9 2 1 3 2 ZW 1010,5 8 0 0,0
23.02.2018 21:00:00 2,0 -2,3 -1,9 8,0 9,9 0 0 5 3 N 1010,1 12 0 0,0
23.02.2018 20:00:00 4,1 -3,0 2,9 8,0 9,9 0 0 5 3 N 1009,9 14 0 0,0
23.02.2018 19:00:00 4,4 -2,7 3,6 8,0 10,0 3 2 8 5 NNW 1009,9 14 0 0,0
23.02.2018 18:00:00 4,8 -3,2 4,9 7,8 9,9 4 2 10 6 WNW 1009,4 15 0 0,0
23.02.2018 17:00:00 5,0 -3,3 5,9 7,7 9,9 4 2 9 5 NW 1009,3 15 0 0,0
23.02.2018 16:00:00 5,1 -3,2 6,4 7,6 9,9 7 4 11 6 W 1009,5 15 0 0,0
23.02.2018 15:00:00 5,0 -2,8 6,7 7,5 10,0 3 2 13 7 NW 1009,8 13 0 0,0
23.02.2018 14:00:00 5,5 -2,4 8,3 7,4 9,9 3 2 12 6 ZW 1010,0 13 30 0,0
23.02.2018 13:00:00 5,1 -1,6 6,9 7,4 9,9 5 3 11 6 WZW 1010,5 10 57 0,0
23.02.2018 12:00:00 3,5 -1,3 4,5 7,4 10,0 9 5 13 7 W 1011,1 10 4 0,0
23.02.2018 11:00:00 2,4 -1,6 2,9 7,5 9,9 6 3 11 6 W 1011,2 9 0 0,0
23.02.2018 10:00:00 1,9 -1,0 1,6 7,5 9,9 5 3 9 5 W 1011,2 9 0 0,0
23.02.2018 09:00:00 1,4 -1,3 0,9 7,5 9,9 5 3 9 5 WZW 1011,1 9 0 0,0
23.02.2018 08:00:00 1,3 -1,4 0,8 7,6 10,0 2 1 5 3 ZZW 1010,7 9 0 0,0
23.02.2018 07:00:00 1,4 -1,3 0,9 7,7 10,0 3 1 8 4 ZW 1010,7 9 0 0,0
23.02.2018 06:00:00 1,6 -1,5 1,2 7,8 10,0 4 2 8 4 WZW 1010,5 9 0 0,0
23.02.2018 05:00:00 2,0 -2,0 1,3 7,8 10,0 4 2 8 4 WNW 1010,6 10 0 0,0
23.02.2018 04:00:00 2,3 -2,0 1,6 7,8 9,9 2 1 10 5 N 1010,8 11 0 0,0
23.02.2018 03:00:00 2,5 -2,0 2,1 7,9 10,0 8 5 15 8 NW 1011,1 11 0 0,0
23.02.2018 02:00:00 3,1 -2,8 2,2 8,0 10,0 6 4 9 5 NW 1011,4 13 0 0,0
23.02.2018 01:00:00 3,4 -3,6 2,4 8,0 10,0 3 2 10 5 WNW 1011,7 14 0 0,0
23.02.2018 00:00:00 3,5 -3,3 1,4 8,1 9,9 7 4 10 5 NW 1011,9 15 0 0,0
22.02.2018 23:00:00 3,3 -3,1 1,5 8,1 10,0 3 1 13 7 NNW 1012,2 14 0 0,0
22.02.2018 22:00:00 4,2 -3,8 3,3 8,2 10,0 10 5 22 12 N 1012,2 16 0 0,0
22.02.2018 21:00:00 4,7 -2,9 4,0 8,2 10,0 13 7 23 13 NNW 1012,0 14 0 0,0
22.02.2018 20:00:00 5,3 -3,8 4,6 8,2 10,0 12 6 25 13 NW 1011,6 16 0 0,0
22.02.2018 19:00:00 5,8 -3,8 4,8 8,2 10,0 9 5 18 10 WNW 1011,3 17 14 0,0
22.02.2018 18:00:00 6,3 -4,2 6,2 8,1 10,0 9 5 22 12 NW 1010,8 15 58 0,0
22.02.2018 17:00:00 6,8 -3,2 7,7 8,0 10,0 16 9 30 16 NNW 1010,7 15 48 0,0
22.02.2018 16:00:00 7,0 0,0 7,3 8,0 10,0 16 9 30 16 W 1010,7 11 45 0,0
22.02.2018 15:00:00 5,3 -0,3 6,1 7,9 9,9 10 6 29 16 W 1011,2 9 38 0,0
22.02.2018 14:00:00 3,9 -1,1 3,2 7,9 9,9 12 7 27 15 WNW 1012,1 8 14 0,0
22.02.2018 13:00:00 2,6 -1,4 2,7 8,0 10,0 12 7 26 14 W 1013,0 8 0 0,0
22.02.2018 12:00:00 1,7 -1,9 2,3 8,0 10,0 13 7 28 15 W 1013,6 6 1 0,0
22.02.2018 11:00:00 1,2 -1,7 1,5 8,1 9,9 11 6 20 11 W 1014,0 6 0 0,0
22.02.2018 10:00:00 0,5 -1,6 0,5 8,2 9,9 10 6 21 12 WNW 1014,2 5 0 0,0
22.02.2018 09:00:00 0,1 -1,3 -0,5 8,3 9,9 6 4 15 8 WNW 1014,1 4,3 0 0,0
22.02.2018 08:00:00 -0,2 -1,8 -0,7 8,4 9,9 9 5 19 10 W 1013,8 4,3 0 0,0
22.02.2018 07:00:00 0,6 -1,5 0,4 8,5 9,9 6 3 19 11 WNW 1013,7 5 0 0,0
22.02.2018 06:00:00 0,9 -1,2 -0,3 8,6 9,9 8 4 17 9 WNW 1013,6 6 0 0,0
22.02.2018 05:00:00 1,1 -1,3 0,5 8,7 9,9 8 5 22 12 NW 1013,8 7 0 0,0
22.02.2018 04:00:00 1,6 -1,3 1,5 8,8 9,9 14 8 25 14 NW 1013,9 8 0 0,0
22.02.2018 03:00:00 2,1 -1,7 1,4 8,9 9,9 13 7 23 13 WNW 1014,4 11 0 0,0
22.02.2018 02:00:00 2,1 -1,9 1,3 9,0 9,9 10 5 16 9 NW 1014,7 11 0 0,0
22.02.2018 01:00:00 2,6 -1,4 1,0 9,1 9,9 8 4 14 8 WNW 1014,9 11 0 0,0
22.02.2018 00:00:00 2,7 -1,7 1,3 9,2 9,9 8 4 19 10 NW 1015,4 12 0 0,0
21.02.2018 23:00:00 3,6 -1,2 2,9 9,3 9,9 12 7 28 15 NNW 1015,8 13 0 0,0
21.02.2018 22:00:00 4,8 -0,4 4,3 9,4 9,9 14 8 26 14 NNW 1015,9 14 0 0,0
21.02.2018 21:00:00 5,4 -0,7 4,9 9,4 9,9 14 8 25 14 NNW 1015,8 16 0 0,0
21.02.2018 20:00:00 6,0 -0,5 5,5 9,4 9,9 13 7 21 11 NW 1015,3 19 0 0,0
21.02.2018 19:00:00 6,3 -1,1 5,7 9,4 9,9 12 7 18 10 NW 1015,1 20 0 0,0
21.02.2018 18:00:00 6,5 -1,2 6,2 9,4 9,9 11 6 24 13 NW 1014,7 19 0 0,0
21.02.2018 17:00:00 7,0 -1,4 7,1 9,3 9,9 16 8 27 14 NNW 1014,4 20 12 0,0
21.02.2018 16:00:00 7,0 -1,7 7,8 9,2 9,9 12 7 34 19 NW 1014,4 19 25 0,0
21.02.2018 15:00:00 6,5 -1,4 7,8 9,2 9,9 18 10 32 17 N 1014,9 19 45 0,0
21.02.2018 14:00:00 7,1 -1,1 9,1 9,1 9,8 22 12 40 22 NNW 1014,9 19 55 0,0
21.02.2018 13:00:00 6,4 -0,1 8,7 9,1 9,8 21 11 31 17 NNW 1015,7 17 48 0,0
21.02.2018 12:00:00 6,2 -0,1 8,5 9,2 9,9 21 12 35 19 N 1016,1 16 60 0,0
21.02.2018 11:00:00 5,4 0,6 7,7 9,2 9,9 22 12 36 20 N 1016,5 15 60 0,0
21.02.2018 10:00:00 4,5 1,0 4,3 9,3 9,9 22 12 32 17 N 1016,3 15 53 0,0
21.02.2018 09:00:00 3,9 1,6 3,4 9,4 9,8 18 10 32 17 N 1016,1 20 0 0,0
21.02.2018 08:00:00 4,9 2,8 4,3 9,5 9,8 21 12 33 18 N 1015,6 20 0 0,0
21.02.2018 07:00:00 5,6 4,4 4,5 9,5 9,8 12 7 24 13 NNW 1014,6 20 0 0,0
21.02.2018 06:00:00 6,4 6,4 5,9 9,6 9,8 18 10 34 19 N 1013,7 20 0 0,0
21.02.2018 05:00:00 6,7 5,5 6,4 9,6 9,8 19 10 33 18 NNW 1013,7 8 0 0,0
21.02.2018 04:00:00 7,1 5,9 6,2 9,7 9,8 17 9 27 14 NNW 1013,7 20 0 0,0
21.02.2018 03:00:00 7,2 6,1 6,5 9,7 9,8 15 8 29 15 NNW 1014,1 19 0 1,2
21.02.2018 02:00:00 8,0 8,0 7,4 9,7 9,8 11 6 21 11 NNW 1014,9 6 0 0,8
21.02.2018 01:00:00 7,9 7,9 7,1 9,7 9,8 7 4 19 11 NW 1015,3 20 0 0,0
21.02.2018 00:00:00 8,2 8,1 7,6 9,7 9,8 11 6 21 12 WNW 1015,9 19 0 0,6
20.02.2018 23:00:00 8,7 7,5 7,8 9,8 9,8 11 6 36 19 WNW 1016,7 12 0 0,4
20.02.2018 22:00:00 9,5 8,1 8,7 9,8 9,8 12 6 27 14 NW 1017,2 17 0 0,2
20.02.2018 21:00:00 9,9 8,0 9,1 9,8 9,8 17 9 29 16 WNW 1017,5 20 0 0,0
20.02.2018 20:00:00 9,8 8,7 9,0 9,7 9,8 14 8 32 17 WNW 1017,2 20 0 0,0
20.02.2018 19:00:00 9,7 8,8 9,1 9,7 9,8 16 8 31 17 WNW 1017,1 6 0 0,4
20.02.2018 18:00:00 10,0 8,8 9,4 9,7 9,8 11 6 29 16 WNW 1017,1 7 0 0,0
20.02.2018 17:00:00 10,5 8,6 9,7 9,6 9,8 17 9 35 19 NW 1016,9 15 2 0,0
20.02.2018 16:00:00 11,1 8,7 10,7 9,5 9,7 15 8 28 15 W 1016,5 18 1 0,0
20.02.2018 15:00:00 11,3 8,7 10,5 9,5 9,8 13 7 29 16 W 1016,8 20 0 0,0
20.02.2018 14:00:00 10,6 8,5 10,6 9,5 9,8 14 7 34 18 W 1017,4 20 0 0,0
20.02.2018 13:00:00 10,4 8,5 10,5 9,4 9,8 15 8 34 19 WNW 1017,4 20 0 0,0
20.02.2018 12:00:00 10,1 8,7 9,5 9,4 9,8 18 10 38 20 WNW 1017,7 18 0 0,0
20.02.2018 11:00:00 9,9 9,3 9,4 9,4 9,8 18 10 33 18 WNW 1017,6 20 0 0,0
20.02.2018 10:00:00 9,9 9,9 9,4 9,4 9,8 16 8 27 15 WNW 1017,3 19 0 0,2
20.02.2018 09:00:00 9,9 9,9 9,4 9,4 9,7 13 7 29 15 WNW 1016,9 8 0 0,8
20.02.2018 08:00:00 9,9 9,9 9,2 9,4 9,7 13 7 26 14 WNW 1016,6 3,5 0 0,2
20.02.2018 07:00:00 9,7 9,7 9,1 9,4 9,7 9 5 18 10 W 1016,5 7 0 0,2
20.02.2018 06:00:00 9,6 9,6 8,9 9,5 9,7 12 6 22 12 WNW 1016,7 20 0 0,2
20.02.2018 05:00:00 9,3 9,3 8,8 9,5 9,7 9 5 16 9 W 1016,7 4,6 0 0,0
20.02.2018 04:00:00 9,2 9,2 8,7 9,5 9,7 10 5 19 10 W 1017,1 7 0 0,2
20.02.2018 03:00:00 9,2 9,2 8,6 9,5 9,7 7 4 15 8 W 1017,4 4,2 0 0,0
20.02.2018 02:00:00 9,0 9,0 8,6 9,5 9,7 6 3 19 11 WNW 1017,8 12 0 0,0
20.02.2018 01:00:00 9,1 9,1 8,6 9,5 9,7 11 6 18 10 NW 1018,2 20 0 0,0
20.02.2018 00:00:00 9,1 9,1 8,6 9,5 9,7 11 6 18 10 NW 1017,8 20 0 0,0
19.02.2018 23:00:00 9,1 9,1 8,6 9,5 9,7 8 4 16 8 NW 1018,1 20 0 0,0
19.02.2018 22:00:00 9,0 9,0 8,2 9,5 9,7 5 3 9 5 NW 1018,3 17 0 0,0
19.02.2018 21:00:00 8,8 8,8 8,3 9,5 9,7 0 0 4 2 N 1018,4 8 0 0,0
19.02.2018 20:00:00 8,9 8,9 8,6 9,5 9,7 3 1 3 2 N 1018,5 7 0 0,0

tt = temperatuur
td = dauwpunt
tt 5cm = temperatuur 5cm
tt -20cm = temperatuur -20cm
tt -100cm = temperatuur -100cm
ff = windsnelheid
fx = windstoten
dd = windrichting
ppp = luchtdruk
vv = zicht
sd = Zonneschijnduur
rr = neerslag

Weerstations in de omgeving